Powrót do katalogu

FENGYUN 1C DEB

AktywnySSO
NORAD 31239·DEBRIS·🇨🇳 China

Wystrzelony May 10, 1999 z Taiyuan Satellite Launch Center

Loading…

Następne Przeloty (najbliższe 24 godziny)

TLE

ŚwieżeSource: Space-Track

Epoka: Sep 13, 2026, 11:24 UTC

1 31239U 99025BLV 26256.47524175  .00000253  00000-0  16516-3 0  9991
2 31239  98.7746 249.4328 0050201 140.4090  12.7918 14.10181501998836

Śledź FENGYUN 1C DEB w czasie rzeczywistym z AllMySat

Download on the App Store